STARLINK-11264 [DTC] (60906 NORAD) Tracking and Keplerian Element Data

This shows tracking and keplerian element data for the satellite.

Feedback or suggestion? Click here.




ElementValue
Catalog60906
NameSTARLINK-11264 [DTC]
Epoch Orbit795
Epoch Day286.83321202
Epoch Year2024
RAAN140.2543
Inclination53.1584
Eccentricity6.63E-05
Argument of Perigee104.6969
Mean Anonmoly255.4125
Mean Motion15.76708074
Decay Rate0.00031026
L11 60906U 24154D 24286.83321202 .00031026 00000+0 19304-3 0 9991
L22 60906 53.1584 140.2543 0000663 104.6969 255.4125 15.76708074 7958



Live tracking and technical data element details for STARLINK-11264 [DTC] (NORAD 60906). STARLINK-11264 [DTC] can be tracked NOW for your location showing map with azimuth and elevation plus other details from your city location.







IsCatalogInMostPopularTable: catalog: 60906, numindb: 9
Update: records affected: 1



GetName: 60906 STARLINK-11264 [DTC]

Hit Count: updated at: Fri, 06 Dec 2024 10:24:23 GMT